• In Schweiz
  • Länderverzeichnis
  • Für 7 Tage
  • Wassertemperatur
  • Satellitenkarten
  • Wetterkarte
  • Widgets
  • user-avatar
    Anmelden

    Stündliche Wetter Balcho

    Heute, 17 Dezember, Sonntag

    Zeit Temperatur Niederschläge Wind Luftdruck Luftfeuchtigkeit
    00:00 +27°C° 0 mm 3 m/S 739 mmHg 61%
    01:00 +27°C° 0 mm 3 m/S 739 mmHg 63%
    02:00 +26°C° 0 mm 3 m/S 739 mmHg 66%
    03:00 +26°C° 0 mm 2 m/S 739 mmHg 68%
    04:00 +26°C° 0 mm 2 m/S 739 mmHg 70%
    05:00 +25°C° 0 mm 2 m/S 739 mmHg 72%
    06:00 +25°C° 0 mm 2 m/S 739 mmHg 74%
    07:00 +26°C° 0 mm 2 m/S 739 mmHg 69%
    08:00 +26°C° 0 mm 3 m/S 740 mmHg 64%
    09:00 +28°C° 0 mm 3 m/S 740 mmHg 57%
    10:00 +29°C° 0 mm 3 m/S 740 mmHg 51%
    11:00 +30°C° 0 mm 3 m/S 740 mmHg 44%
    12:00 +33°C° 0 mm 3 m/S 740 mmHg 38%
    13:00 +33°C° 0 mm 4 m/S 739 mmHg 37%
    14:00 +34°C° 0 mm 4 m/S 739 mmHg 36%
    15:00 +34°C° 0 mm 4 m/S 738 mmHg 34%
    16:00 +33°C° 0 mm 4 m/S 738 mmHg 37%
    17:00 +32°C° 0 mm 5 m/S 738 mmHg 41%
    18:00 +32°C° 0 mm 5 m/S 738 mmHg 44%
    19:00 +30°C° 0 mm 5 m/S 739 mmHg 48%
    20:00 +29°C° 0 mm 5 m/S 739 mmHg 53%
    21:00 +28°C° 0 mm 5 m/S 739 mmHg 57%
    22:00 +27°C° 0 mm 5 m/S 739 mmHg 58%
    23:00 +27°C° 0 mm 5 m/S 740 mmHg 59%

    Morgen, 18 Dezember, Montag

    Zeit Temperatur Niederschläge Wind Luftdruck Luftfeuchtigkeit
    00:00 +27°C° 0 mm 4 m/S 740 mmHg 60%
    01:00 +26°C° 0 mm 4 m/S 740 mmHg 62%
    02:00 +26°C° 0 mm 4 m/S 740 mmHg 64%
    03:00 +25°C° 0 mm 3 m/S 739 mmHg 67%
    04:00 +25°C° 0 mm 3 m/S 740 mmHg 69%
    05:00 +25°C° 0 mm 3 m/S 740 mmHg 71%
    06:00 +25°C° 0 mm 3 m/S 740 mmHg 74%
    07:00 +25°C° 0 mm 3 m/S 741 mmHg 68%
    08:00 +26°C° 0 mm 3 m/S 741 mmHg 63%
    09:00 +27°C° 0 mm 4 m/S 742 mmHg 57%
    10:00 +29°C° 0 mm 4 m/S 741 mmHg 50%
    11:00 +30°C° 0 mm 4 m/S 741 mmHg 43%
    12:00 +33°C° 0 mm 5 m/S 741 mmHg 36%
    13:00 +33°C° 0 mm 5 m/S 740 mmHg 35%
    14:00 +33°C° 0 mm 5 m/S 739 mmHg 34%
    15:00 +34°C° 0 mm 5 m/S 738 mmHg 33%
    16:00 +33°C° 0 mm 6 m/S 738 mmHg 37%
    17:00 +32°C° 0 mm 6 m/S 738 mmHg 41%
    18:00 +30°C° 0 mm 6 m/S 738 mmHg 45%
    19:00 +29°C° 0 mm 6 m/S 739 mmHg 50%
    20:00 +28°C° 0 mm 6 m/S 739 mmHg 54%
    21:00 +27°C° 0 mm 6 m/S 740 mmHg 59%
    22:00 +27°C° 0 mm 6 m/S 740 mmHg 61%
    23:00 +26°C° 0 mm 5 m/S 740 mmHg 63%

    übermorgen, 19 Dezember, Dienstag

    Zeit Temperatur Niederschläge Wind Luftdruck Luftfeuchtigkeit
    00:00 +26°C° 0 mm 5 m/S 740 mmHg 65%
    01:00 +26°C° 0 mm 4 m/S 740 mmHg 67%
    02:00 +25°C° 0 mm 4 m/S 740 mmHg 69%
    03:00 +25°C° 0 mm 3 m/S 739 mmHg 71%
    04:00 +25°C° 0 mm 3 m/S 739 mmHg 73%
    05:00 +24°C° 0 mm 3 m/S 740 mmHg 74%
    06:00 +24°C° 0 mm 3 m/S 740 mmHg 76%
    07:00 +25°C° 0 mm 3 m/S 741 mmHg 70%
    08:00 +26°C° 0 mm 4 m/S 741 mmHg 64%
    09:00 +27°C° 0 mm 5 m/S 742 mmHg 58%
    10:00 +28°C° 0 mm 5 m/S 742 mmHg 52%
    11:00 +30°C° 0 mm 5 m/S 741 mmHg 46%
    12:00 +32°C° 0 mm 6 m/S 741 mmHg 41%
    13:00 +32°C° 0 mm 6 m/S 740 mmHg 39%
    14:00 +32°C° 0 mm 6 m/S 740 mmHg 38%
    15:00 +33°C° 0 mm 6 m/S 739 mmHg 37%
    16:00 +32°C° 0 mm 6 m/S 739 mmHg 39%
    17:00 +30°C° 0 mm 6 m/S 739 mmHg 42%
    18:00 +29°C° 0 mm 6 m/S 739 mmHg 44%
    19:00 +28°C° 0 mm 6 m/S 740 mmHg 47%
    20:00 +28°C° 0 mm 6 m/S 740 mmHg 49%
    21:00 +27°C° 0 mm 6 m/S 741 mmHg 52%
    22:00 +26°C° 0 mm 6 m/S 741 mmHg 54%
    23:00 +26°C° 0 mm 5 m/S 741 mmHg 56%

    20 Dezember, Mittwoch

    Zeit Temperatur Niederschläge Wind Luftdruck Luftfeuchtigkeit
    00:00 +26°C° 0 mm 5 m/S 741 mmHg 58%
    01:00 +25°C° 0 mm 5 m/S 740 mmHg 60%
    02:00 +25°C° 0 mm 4 m/S 740 mmHg 62%
    03:00 +24°C° 0 mm 3 m/S 740 mmHg 64%
    04:00 +24°C° 0 mm 3 m/S 740 mmHg 65%
    05:00 +22°C° 0 mm 3 m/S 740 mmHg 66%
    06:00 +23°C° 0 mm 2 m/S 741 mmHg 67%
    07:00 +24°C° 0 mm 3 m/S 741 mmHg 60%
    08:00 +25°C° 0 mm 4 m/S 742 mmHg 53%
    09:00 +27°C° 0 mm 5 m/S 743 mmHg 46%
    10:00 +28°C° 0 mm 5 m/S 743 mmHg 40%
    11:00 +29°C° 0 mm 5 m/S 742 mmHg 34%
    12:00 +32°C° 0 mm 5 m/S 742 mmHg 29%
    13:00 +32°C° 0 mm 6 m/S 741 mmHg 27%
    14:00 +33°C° 0 mm 6 m/S 740 mmHg 26%
    15:00 +33°C° 0 mm 6 m/S 740 mmHg 25%
    16:00 +32°C° 0 mm 6 m/S 740 mmHg 29%
    17:00 +30°C° 0 mm 6 m/S 740 mmHg 32%
    18:00 +29°C° 0 mm 6 m/S 740 mmHg 35%
    19:00 +28°C° 0 mm 6 m/S 741 mmHg 38%
    20:00 +27°C° 0 mm 6 m/S 741 mmHg 42%
    21:00 +27°C° 0 mm 6 m/S 742 mmHg 45%
    22:00 +26°C° 0 mm 5 m/S 742 mmHg 48%
    23:00 +26°C° 0 mm 5 m/S 742 mmHg 51%

    21 Dezember, Donnerstag

    Zeit Temperatur Niederschläge Wind Luftdruck Luftfeuchtigkeit
    00:00 +25°C° 0 mm 4 m/S 742 mmHg 53%
    01:00 +25°C° 0 mm 4 m/S 741 mmHg 57%
    02:00 +24°C° 0 mm 3 m/S 741 mmHg 60%
    03:00 +24°C° 0 mm 3 m/S 741 mmHg 64%
    04:00 +24°C° 0 mm 2 m/S 741 mmHg 66%
    05:00 +23°C° 0 mm 2 m/S 741 mmHg 69%
    06:00 +23°C° 0 mm 2 m/S 742 mmHg 72%
    07:00 +24°C° 0 mm 3 m/S 742 mmHg 66%
    08:00 +25°C° 0 mm 4 m/S 743 mmHg 60%
    09:00 +26°C° 0 mm 4 m/S 744 mmHg 55%
    10:00 +28°C° 0 mm 5 m/S 743 mmHg 49%
    11:00 +29°C° 0 mm 5 m/S 743 mmHg 43%
    12:00 +30°C° 0 mm 5 m/S 742 mmHg 37%
    13:00 +32°C° 0 mm 5 m/S 741 mmHg 35%
    14:00 +32°C° 0 mm 5 m/S 741 mmHg 34%
    15:00 +33°C° 0 mm 6 m/S 740 mmHg 32%
    16:00 +32°C° 0 mm 6 m/S 740 mmHg 35%
    17:00 +30°C° 0 mm 6 m/S 740 mmHg 38%
    18:00 +29°C° 0 mm 6 m/S 740 mmHg 41%
    19:00 +28°C° 0 mm 6 m/S 741 mmHg 44%
    20:00 +27°C° 0 mm 6 m/S 741 mmHg 47%
    21:00 +27°C° 0 mm 6 m/S 742 mmHg 50%
    22:00 +26°C° 0 mm 5 m/S 741 mmHg 51%
    23:00 +26°C° 0 mm 4 m/S 741 mmHg 53%

    22 Dezember, Freitag

    Zeit Temperatur Niederschläge Wind Luftdruck Luftfeuchtigkeit
    00:00 +25°C° 0 mm 4 m/S 741 mmHg 55%
    01:00 +25°C° 0 mm 3 m/S 741 mmHg 57%
    02:00 +24°C° 0 mm 3 m/S 741 mmHg 60%
    03:00 +24°C° 0 mm 2 m/S 740 mmHg 62%
    04:00 +24°C° 0 mm 2 m/S 741 mmHg 65%
    05:00 +23°C° 0 mm 2 m/S 741 mmHg 67%
    06:00 +23°C° 0 mm 2 m/S 741 mmHg 69%
    07:00 +24°C° 0 mm 3 m/S 742 mmHg 64%
    08:00 +25°C° 0 mm 3 m/S 742 mmHg 59%
    09:00 +26°C° 0 mm 4 m/S 743 mmHg 53%
    10:00 +28°C° 0 mm 4 m/S 742 mmHg 47%
    11:00 +29°C° 0 mm 5 m/S 742 mmHg 40%
    12:00 +30°C° 0 mm 5 m/S 741 mmHg 34%
    13:00 +32°C° 0 mm 5 m/S 740 mmHg 32%
    14:00 +33°C° 0 mm 5 m/S 739 mmHg 30%
    15:00 +33°C° 0 mm 5 m/S 738 mmHg 28%
    16:00 +32°C° 0 mm 6 m/S 739 mmHg 31%
    17:00 +30°C° 0 mm 6 m/S 739 mmHg 33%
    18:00 +29°C° 0 mm 6 m/S 739 mmHg 36%
    19:00 +29°C° 0 mm 6 m/S 739 mmHg 39%
    20:00 +28°C° 0 mm 5 m/S 739 mmHg 42%
    21:00 +27°C° 0 mm 5 m/S 739 mmHg 46%
    22:00 +26°C° 0 mm 5 m/S 739 mmHg 48%
    23:00 +26°C° 0 mm 4 m/S 739 mmHg 50%
    Mehr zeigen